Orbital Elements at Epoch 2459000.5 (2020-May-31.0) TDB
Reference: JPL 1 (heliocentric ecliptic J2000)
Element | Value | Uncertainty (1-sigma) | Units |
e | .2563846926702751 | 0.00017582 | |
a | 1.267946029941606 | 0.00028759 | au |
q | .9428640767325323 | 1.2981e-05 | au |
i | 21.41068203413064 | 0.0086126 | deg |
node | 192.3395970084469 | 4.1998e-05 | deg |
peri | 134.3801994919766 | 0.0093742 | deg |
M | 83.62411888633915 | 0.15837 | deg |
tp | 2458879.362492562890 (2020-Jan-30.86249256) | 0.18821 | TDB |
period | 521.4943159716059 1.43 | 0.17742 0.0004857 | d yr |
n | .6903239191193814 | 0.00023486 | deg/d |
Q | 1.59302798315068 | 0.00036132 | au |
|
| | Orbit Determination Parameters
Additional Information
|